Air Quality Table

TIMESTAMP NO2 O3 PM2.5 TEMP HUM AIRPRES WS WD NO
2021-11-30 01:00 N/A 77.98 µg/m3 2.29 µg/m3 12.34 °C N/A 1,002.62 mbar 3.47 m/s 306.87 Deg N/A
2021-11-30 00:00 N/A 81.71 µg/m3 3.26 µg/m3 11.86 °C N/A 1,002.32 mbar 4.38 m/s 293.35 Deg N/A
2021-11-29 23:00 N/A 83.15 µg/m3 1.59 µg/m3 10.63 °C N/A 1,002.23 mbar 4 m/s 312.6 Deg N/A
2021-11-29 22:00 N/A 82.92 µg/m3 1.78 µg/m3 11 °C N/A 1,001.30 mbar 3.05 m/s 305.8 Deg N/A
2021-11-29 21:00 N/A 81.75 µg/m3 5.32 µg/m3 11.71 °C N/A 1,000.26 mbar 3.11 m/s 325.48 Deg N/A
2021-11-29 20:00 N/A 81.26 µg/m3 8 µg/m3 13.52 °C N/A 999.13 mbar 4.03 m/s 319.62 Deg N/A
2021-11-29 19:00 N/A 80.5 µg/m3 5.22 µg/m3 14.35 °C N/A 997.95 mbar 4.95 m/s 300.98 Deg N/A
2021-11-29 18:00 N/A 76.02 µg/m3 4.11 µg/m3 14.44 °C N/A 996.99 mbar 5.11 m/s 304.89 Deg N/A
2021-11-29 17:00 N/A 72.4 µg/m3 3.54 µg/m3 12.97 °C N/A 996.64 mbar 4.83 m/s 299.28 Deg N/A
2021-11-29 16:00 N/A 72.61 µg/m3 6.02 µg/m3 13.71 °C N/A 995.76 mbar 4.4 m/s 302.6 Deg N/A
2021-11-29 15:00 N/A 73.45 µg/m3 6.21 µg/m3 15.11 °C N/A 995.13 mbar 4.83 m/s 285.92 Deg N/A
2021-11-29 14:00 N/A 72.28 µg/m3 5.47 µg/m3 15.17 °C N/A 995.17 mbar 4.44 m/s 285.24 Deg N/A
2021-11-29 13:00 N/A 71.83 µg/m3 2.5 µg/m3 15.19 °C N/A 995.92 mbar 4.79 m/s 280.22 Deg N/A
2021-11-29 12:00 N/A 70.98 µg/m3 4.24 µg/m3 15.32 °C N/A 996.51 mbar 4.02 m/s 295.1 Deg N/A
2021-11-29 11:00 N/A 69.6 µg/m3 3.03 µg/m3 15.03 °C N/A 996.84 mbar 4.06 m/s 286.07 Deg N/A
2021-11-29 10:00 N/A 67.85 µg/m3 3.35 µg/m3 14.61 °C N/A 996.98 mbar 4.1 m/s 299 Deg N/A
2021-11-29 09:00 N/A 69.09 µg/m3 2.1 µg/m3 14.19 °C N/A 996.87 mbar 4.18 m/s 295.28 Deg N/A
2021-11-29 08:00 N/A 68.29 µg/m3 3.54 µg/m3 13.83 °C N/A 996.41 mbar 4.19 m/s 295.33 Deg N/A
2021-11-29 07:00 N/A 69.11 µg/m3 2.99 µg/m3 13.79 °C N/A 995.76 mbar 3.75 m/s 295.32 Deg N/A
2021-11-29 06:00 N/A 70.69 µg/m3 1.88 µg/m3 14 °C N/A 995.29 mbar 4.15 m/s 299.4 Deg N/A
2021-11-29 05:00 N/A 71.95 µg/m3 1.08 µg/m3 13.75 °C N/A 995.04 mbar 3.55 m/s 303.23 Deg N/A
2021-11-29 04:00 N/A 72.73 µg/m3 1.59 µg/m3 13.51 °C N/A 994.79 mbar 2.73 m/s 313.17 Deg N/A
2021-11-29 03:00 N/A 74.35 µg/m3 2.39 µg/m3 14.08 °C N/A 994.45 mbar 3.06 m/s 314.23 Deg N/A
2021-11-29 02:00 N/A 74.98 µg/m3 2.71 µg/m3 13.76 °C N/A 994.31 mbar 2.3 m/s 313.6 Deg N/A
2021-11-29 01:00 N/A 72.82 µg/m3 1.86 µg/m3 13.28 °C N/A 994.56 mbar 1.86 m/s 315.3 Deg N/A
2021-11-29 00:00 N/A 74.22 µg/m3 3.79 µg/m3 13.98 °C N/A 994.44 mbar 1.8 m/s 317.03 Deg N/A
2021-11-28 23:00 N/A 73.65 µg/m3 3.58 µg/m3 14.47 °C N/A 994.30 mbar 1.59 m/s 312.45 Deg N/A
2021-11-28 22:00 N/A 76.35 µg/m3 3.71 µg/m3 14.67 °C N/A 994.30 mbar 1.94 m/s 309.52 Deg N/A
2021-11-28 21:00 N/A 79.52 µg/m3 3.73 µg/m3 15.21 °C N/A 993.77 mbar 2.1 m/s 303.77 Deg N/A
2021-11-28 20:00 N/A 81.14 µg/m3 2.22 µg/m3 15.3 °C N/A 993.53 mbar 2.04 m/s 312.65 Deg N/A
2021-11-28 19:00 N/A 79.98 µg/m3 1.8 µg/m3 14.81 °C N/A 993.12 mbar 2.11 m/s 311.13 Deg N/A
2021-11-28 18:00 N/A 80.18 µg/m3 1.76 µg/m3 14.72 °C N/A 992.44 mbar 2.85 m/s 311.88 Deg N/A
2021-11-28 17:00 N/A 78.88 µg/m3 0.21 µg/m3 14.66 °C N/A 991.91 mbar 2.61 m/s 311.45 Deg N/A
2021-11-28 16:00 N/A 76.87 µg/m3 3.77 µg/m3 16.64 °C N/A 991.51 mbar 2.58 m/s 290 Deg N/A
2021-11-28 15:00 N/A 74.2 µg/m3 2.39 µg/m3 16.3 °C N/A 991.61 mbar 1.8 m/s 289.5 Deg N/A
2021-11-28 14:00 N/A 76.55 µg/m3 0.21 µg/m3 16.14 °C N/A 992.12 mbar 2.95 m/s 270.78 Deg N/A
2021-11-28 13:00 N/A 74.3 µg/m3 -0.22 µg/m3 15.56 °C N/A 992.57 mbar 2.86 m/s 235.76 Deg N/A
2021-11-28 12:00 N/A 73.2 µg/m3 -0.22 µg/m3 14.59 °C N/A 994.76 mbar 2.38 m/s 236.87 Deg N/A
2021-11-28 11:00 N/A 82.23 µg/m3 1.99 µg/m3 13.78 °C N/A 995.53 mbar 2.87 m/s 219.5 Deg N/A
2021-11-28 10:00 N/A 84.01 µg/m3 0.44 µg/m3 13.26 °C N/A 996.01 mbar 2.9 m/s 253.77 Deg N/A
2021-11-28 09:00 N/A 86.02 µg/m3 -1.09 µg/m3 13.24 °C N/A 996.31 mbar 2.69 m/s 268.65 Deg N/A
2021-11-28 08:00 N/A 84.89 µg/m3 5.11 µg/m3 13.41 °C N/A 995.68 mbar 2.12 m/s 285.12 Deg N/A
2021-11-28 07:00 N/A 86.62 µg/m3 -0.58 µg/m3 13.48 °C N/A 995.90 mbar 3 m/s 282.28 Deg N/A
2021-11-28 06:00 N/A 86.09 µg/m3 1.08 µg/m3 14.42 °C N/A 995.36 mbar 2.89 m/s 288.55 Deg N/A
2021-11-28 05:00 N/A 85.95 µg/m3 5.3 µg/m3 16.98 °C N/A 995.11 mbar 3.53 m/s 285.58 Deg N/A
2021-11-28 04:00 N/A 85.27 µg/m3 4.64 µg/m3 17.6 °C N/A 994.92 mbar 3.33 m/s 283.36 Deg N/A
2021-11-28 03:00 N/A 86.22 µg/m3 3.92 µg/m3 17.43 °C N/A 995.08 mbar 2.62 m/s 283.55 Deg N/A

It is to be noted that the data is provisional and subject to quality assurance procedures. For validated data kindly refer your request to contact.air@era.org.mt